Time,TemperatureF,DewpointF,PressureIn,WindDirection,WindDirectionDegrees,WindSpeedMPH,WindSpeedGustMPH,Humidity,HourlyPrecipIn,Conditions,Clouds,dailyrainin,SoftwareType,DateUTC
2013-01-21 00:13:00,-2.0,-99.9,-100.00,SSW,209,9.0,12.0,-999,-99.99,,,-99.99,,2013-01-21 06:13:00,
2013-01-21 00:24:00,-2.0,-99.9,-100.00,SSW,209,9.0,12.0,-999,-99.99,,,-99.99,,2013-01-21 06:24:00,
2013-01-21 00:33:00,-2.0,-99.9,-100.00,SSW,209,9.0,12.0,-999,-99.99,,,-99.99,,2013-01-21 06:33:00,
2013-01-21 00:40:00,-3.0,-99.9,-100.00,SSW,202,8.0,14.0,-999,-99.99,,,-99.99,,2013-01-21 06:40:00,
2013-01-21 01:13:00,-3.0,-99.9,-100.00,SSW,202,8.0,14.0,-999,-99.99,,,-99.99,,2013-01-21 07:13:00,
2013-01-21 01:23:00,-3.0,-99.9,-100.00,SSW,202,8.0,14.0,-999,-99.99,,,-99.99,,2013-01-21 07:23:00,
2013-01-21 01:33:00,-3.0,-99.9,-100.00,SSW,202,8.0,14.0,-999,-99.99,,,-99.99,,2013-01-21 07:33:00,
2013-01-21 02:40:00,-5.0,-99.9,-100.00,SW,223,8.0,13.0,-999,-99.99,,,-99.99,,2013-01-21 08:40:00,
2013-01-21 03:13:00,-5.0,-99.9,-100.00,SW,223,8.0,13.0,-999,-99.99,,,-99.99,,2013-01-21 09:13:00,
2013-01-21 03:23:00,-5.0,-99.9,-100.00,SW,223,8.0,13.0,-999,-99.99,,,-99.99,,2013-01-21 09:23:00,
2013-01-21 03:33:00,-5.0,-99.9,-100.00,SW,223,8.0,13.0,-999,-99.99,,,-99.99,,2013-01-21 09:33:00,
2013-01-21 03:40:00,-6.0,-99.9,-100.00,WSW,244,11.0,18.0,-999,-99.99,,,-99.99,,2013-01-21 09:40:00,
2013-01-21 04:12:00,-6.0,-99.9,-100.00,WSW,244,11.0,18.0,-999,-99.99,,,-99.99,,2013-01-21 10:12:00,
2013-01-21 04:23:00,-6.0,-99.9,-100.00,WSW,244,11.0,18.0,-999,-99.99,,,-99.99,,2013-01-21 10:23:00,
2013-01-21 04:33:00,-6.0,-99.9,-100.00,WSW,244,11.0,18.0,-999,-99.99,,,-99.99,,2013-01-21 10:33:00,
2013-01-21 04:40:00,-6.0,-99.9,-100.00,WSW,239,7.0,13.0,-999,-99.99,,,-99.99,,2013-01-21 10:40:00,
2013-01-21 05:13:00,-6.0,-99.9,-100.00,WSW,239,7.0,13.0,-999,-99.99,,,-99.99,,2013-01-21 11:13:00,
2013-01-21 05:23:00,-6.0,-99.9,-100.00,WSW,239,7.0,13.0,-999,-99.99,,,-99.99,,2013-01-21 11:23:00,
2013-01-21 05:33:00,-6.0,-99.9,-100.00,WSW,239,7.0,13.0,-999,-99.99,,,-99.99,,2013-01-21 11:33:00,
2013-01-21 05:40:00,-8.0,-99.9,-100.00,SW,224,6.0,11.0,-999,-99.99,,,-99.99,,2013-01-21 11:40:00,
2013-01-21 06:12:00,-8.0,-99.9,-100.00,SW,224,6.0,11.0,-999,-99.99,,,-99.99,,2013-01-21 12:12:00,
2013-01-21 06:23:00,-8.0,-99.9,-100.00,SW,224,6.0,11.0,-999,-99.99,,,-99.99,,2013-01-21 12:23:00,
2013-01-21 06:33:00,-8.0,-99.9,-100.00,SW,224,6.0,11.0,-999,-99.99,,,-99.99,,2013-01-21 12:33:00,
2013-01-21 06:40:00,-10.0,-99.9,-100.00,SW,230,8.0,12.0,-999,-99.99,,,-99.99,,2013-01-21 12:40:00,
2013-01-21 07:13:00,-10.0,-99.9,-100.00,SW,230,8.0,12.0,-999,-99.99,,,-99.99,,2013-01-21 13:13:00,
2013-01-21 07:23:00,-10.0,-99.9,-100.00,SW,230,8.0,12.0,-999,-99.99,,,-99.99,,2013-01-21 13:23:00,
2013-01-21 07:33:00,-10.0,-99.9,-100.00,SW,230,8.0,12.0,-999,-99.99,,,-99.99,,2013-01-21 13:33:00,
2013-01-21 07:40:00,-11.0,-99.9,-100.00,SW,228,9.0,17.0,-999,-99.99,,,-99.99,,2013-01-21 13:40:00,
2013-01-21 08:13:00,-11.0,-99.9,-100.00,SW,228,9.0,17.0,-999,-99.99,,,-99.99,,2013-01-21 14:13:00,
2013-01-21 08:23:00,-11.0,-99.9,-100.00,SW,228,9.0,17.0,-999,-99.99,,,-99.99,,2013-01-21 14:23:00,
2013-01-21 08:33:00,-11.0,-99.9,-100.00,SW,228,9.0,17.0,-999,-99.99,,,-99.99,,2013-01-21 14:33:00,
2013-01-21 08:40:00,-10.0,-99.9,-100.00,WSW,241,7.0,16.0,-999,-99.99,,,-99.99,,2013-01-21 14:40:00,
2013-01-21 09:14:00,-10.0,-99.9,-100.00,WSW,241,7.0,16.0,-999,-99.99,,,-99.99,,2013-01-21 15:14:00,
2013-01-21 09:23:00,-10.0,-99.9,-100.00,WSW,241,7.0,16.0,-999,-99.99,,,-99.99,,2013-01-21 15:23:00,
2013-01-21 09:33:00,-10.0,-99.9,-100.00,WSW,241,7.0,16.0,-999,-99.99,,,-99.99,,2013-01-21 15:33:00,
2013-01-21 09:40:00,-10.0,-99.9,-100.00,West,261,12.0,23.0,-999,-99.99,,,-99.99,,2013-01-21 15:40:00,
2013-01-21 10:13:00,-10.0,-99.9,-100.00,West,261,12.0,23.0,-999,-99.99,,,-99.99,,2013-01-21 16:13:00,
2013-01-21 10:24:00,-10.0,-99.9,-100.00,West,261,12.0,23.0,-999,-99.99,,,-99.99,,2013-01-21 16:24:00,
2013-01-21 10:34:00,-10.0,-99.9,-100.00,West,261,12.0,23.0,-999,-99.99,,,-99.99,,2013-01-21 16:34:00,
2013-01-21 10:40:00,-9.0,-99.9,-100.00,West,269,15.0,21.0,-999,-99.99,,,-99.99,,2013-01-21 16:40:00,
2013-01-21 10:53:00,-10.0,-99.9,-100.00,West,261,12.0,23.0,-999,-99.99,,,-99.99,,2013-01-21 16:53:00,
2013-01-21 11:03:00,-10.0,-99.9,-100.00,West,261,12.0,23.0,-999,-99.99,,,-99.99,,2013-01-21 17:03:00,
2013-01-21 11:13:00,-9.0,-99.9,-100.00,West,269,15.0,21.0,-999,-99.99,,,-99.99,,2013-01-21 17:13:00,
2013-01-21 11:23:00,-9.0,-99.9,-100.00,West,269,15.0,21.0,-999,-99.99,,,-99.99,,2013-01-21 17:23:00,
2013-01-21 11:33:00,-9.0,-99.9,-100.00,West,269,15.0,21.0,-999,-99.99,,,-99.99,,2013-01-21 17:33:00,
2013-01-21 12:12:00,-9.0,-99.9,-100.00,WNW,285,15.0,21.0,-999,-99.99,,,-99.99,,2013-01-21 18:12:00,
2013-01-21 12:23:00,-9.0,-99.9,-100.00,WNW,285,15.0,28.0,-999,-99.99,,,-99.99,,2013-01-21 18:23:00,
2013-01-21 12:33:00,-9.0,-99.9,-100.00,WNW,285,15.0,28.0,-999,-99.99,,,-99.99,,2013-01-21 18:33:00,
2013-01-21 12:43:00,-9.0,-99.9,-100.00,WNW,285,15.0,28.0,-999,-99.99,,,-99.99,,2013-01-21 18:43:00,
2013-01-21 12:53:00,-9.0,-99.9,-100.00,WNW,285,15.0,28.0,-999,-99.99,,,-99.99,,2013-01-21 18:53:00,
2013-01-21 13:04:00,-9.0,-99.9,-100.00,WNW,285,15.0,28.0,-999,-99.99,,,-99.99,,2013-01-21 19:04:00,
2013-01-21 13:13:00,-8.0,-99.9,-100.00,WNW,282,14.0,20.0,-999,-99.99,,,-99.99,,2013-01-21 19:13:00,
2013-01-21 13:23:00,-8.0,-99.9,-100.00,WNW,282,14.0,25.0,-999,-99.99,,,-99.99,,2013-01-21 19:23:00,
2013-01-21 13:33:00,-8.0,-99.9,-100.00,WNW,282,14.0,25.0,-999,-99.99,,,-99.99,,2013-01-21 19:33:00,
2013-01-21 13:40:00,-8.0,-99.9,-100.00,West,278,9.0,18.0,-999,-99.99,,,-99.99,,2013-01-21 19:40:00,
2013-01-21 13:43:00,-8.0,-99.9,-100.00,WNW,282,14.0,25.0,-999,-99.99,,,-99.99,,2013-01-21 19:43:00,
2013-01-21 13:53:00,-8.0,-99.9,-100.00,WNW,282,14.0,25.0,-999,-99.99,,,-99.99,,2013-01-21 19:53:00,
2013-01-21 14:04:00,-8.0,-99.9,-100.00,WNW,282,14.0,25.0,-999,-99.99,,,-99.99,,2013-01-21 20:04:00,
2013-01-21 14:13:00,-8.0,-99.9,-100.00,West,278,9.0,18.0,-999,-99.99,,,-99.99,,2013-01-21 20:13:00,
2013-01-21 14:23:00,-8.0,-99.9,-100.00,West,278,9.0,18.0,-999,-99.99,,,-99.99,,2013-01-21 20:23:00,
2013-01-21 14:33:00,-8.0,-99.9,-100.00,West,278,9.0,18.0,-999,-99.99,,,-99.99,,2013-01-21 20:33:00,
2013-01-21 14:40:00,-7.0,-99.9,-100.00,West,275,11.0,17.0,-999,-99.99,,,-99.99,,2013-01-21 20:40:00,
2013-01-21 15:13:00,-7.0,-99.9,-100.00,West,275,11.0,17.0,-999,-99.99,,,-99.99,,2013-01-21 21:13:00,
2013-01-21 15:23:00,-7.0,-99.9,-100.00,West,275,11.0,17.0,-999,-99.99,,,-99.99,,2013-01-21 21:23:00,
2013-01-21 15:33:00,-7.0,-99.9,-100.00,West,275,11.0,17.0,-999,-99.99,,,-99.99,,2013-01-21 21:33:00,
2013-01-21 15:40:00,-7.0,-99.9,-100.00,SW,234,9.0,15.0,-999,-99.99,,,-99.99,,2013-01-21 21:40:00,
2013-01-21 16:13:00,-7.0,-99.9,-100.00,SW,234,9.0,15.0,-999,-99.99,,,-99.99,,2013-01-21 22:13:00,
2013-01-21 16:24:00,-7.0,-99.9,-100.00,SW,234,9.0,15.0,-999,-99.99,,,-99.99,,2013-01-21 22:24:00,
2013-01-21 16:33:00,-7.0,-99.9,-100.00,SW,234,9.0,15.0,-999,-99.99,,,-99.99,,2013-01-21 22:33:00,
2013-01-21 16:40:00,-8.0,-99.9,-100.00,SW,234,11.0,18.0,-999,-99.99,,,-99.99,,2013-01-21 22:40:00,
2013-01-21 17:13:00,-8.0,-99.9,-100.00,SW,234,11.0,18.0,-999,-99.99,,,-99.99,,2013-01-21 23:13:00,
2013-01-21 17:23:00,-8.0,-99.9,-100.00,SW,234,11.0,18.0,-999,-99.99,,,-99.99,,2013-01-21 23:23:00,
2013-01-21 17:33:00,-8.0,-99.9,-100.00,SW,234,11.0,18.0,-999,-99.99,,,-99.99,,2013-01-21 23:33:00,
2013-01-21 17:40:00,-8.0,-99.9,-100.00,SSW,210,7.0,10.0,-999,-99.99,,,-99.99,,2013-01-21 23:40:00,
2013-01-21 18:12:00,-8.0,-99.9,-100.00,SSW,210,7.0,10.0,-999,-99.99,,,-99.99,,2013-01-22 00:12:00,
2013-01-21 18:23:00,-8.0,-99.9,-100.00,SSW,210,7.0,10.0,-999,-99.99,,,-99.99,,2013-01-22 00:23:00,
2013-01-21 18:33:00,-8.0,-99.9,-100.00,SSW,210,7.0,10.0,-999,-99.99,,,-99.99,,2013-01-22 00:33:00,
2013-01-21 18:40:00,-8.0,-99.9,-100.00,SW,226,8.0,16.0,-999,-99.99,,,-99.99,,2013-01-22 00:40:00,
2013-01-21 19:13:00,-8.0,-99.9,-100.00,SW,226,8.0,16.0,-999,-99.99,,,-99.99,,2013-01-22 01:13:00,
2013-01-21 19:23:00,-8.0,-99.9,-100.00,SW,226,8.0,16.0,-999,-99.99,,,-99.99,,2013-01-22 01:23:00,
2013-01-21 19:33:00,-8.0,-99.9,-100.00,SW,226,8.0,16.0,-999,-99.99,,,-99.99,,2013-01-22 01:33:00,
2013-01-21 19:40:00,-8.0,-99.9,-100.00,SW,232,9.0,16.0,-999,-99.99,,,-99.99,,2013-01-22 01:40:00,
2013-01-21 20:12:00,-8.0,-99.9,-100.00,SW,232,9.0,16.0,-999,-99.99,,,-99.99,,2013-01-22 02:12:00,
2013-01-21 20:23:00,-8.0,-99.9,-100.00,SW,232,9.0,16.0,-999,-99.99,,,-99.99,,2013-01-22 02:23:00,
2013-01-21 20:33:00,-8.0,-99.9,-100.00,SW,232,9.0,16.0,-999,-99.99,,,-99.99,,2013-01-22 02:33:00,
2013-01-21 20:40:00,-8.0,-99.9,-100.00,SW,222,8.0,14.0,-999,-99.99,,,-99.99,,2013-01-22 02:40:00,
2013-01-21 21:12:00,-8.0,-99.9,-100.00,SW,222,8.0,14.0,-999,-99.99,,,-99.99,,2013-01-22 03:12:00,
2013-01-21 21:23:00,-8.0,-99.9,-100.00,SW,222,8.0,14.0,-999,-99.99,,,-99.99,,2013-01-22 03:23:00,
2013-01-21 21:33:00,-8.0,-99.9,-100.00,SW,222,8.0,14.0,-999,-99.99,,,-99.99,,2013-01-22 03:33:00,
2013-01-21 21:40:00,-8.0,-99.9,-100.00,SSW,211,9.0,16.0,-999,-99.99,,,-99.99,,2013-01-22 03:40:00,
2013-01-21 22:12:00,-8.0,-99.9,-100.00,SSW,211,9.0,16.0,-999,-99.99,,,-99.99,,2013-01-22 04:12:00,
2013-01-21 22:22:00,-8.0,-99.9,-100.00,SSW,211,9.0,16.0,-999,-99.99,,,-99.99,,2013-01-22 04:22:00,
2013-01-21 22:33:00,-8.0,-99.9,-100.00,SSW,211,9.0,16.0,-999,-99.99,,,-99.99,,2013-01-22 04:33:00,
2013-01-21 22:40:00,-9.0,-99.9,-100.00,SW,228,9.0,12.0,-999,-99.99,,,-99.99,,2013-01-22 04:40:00,
2013-01-21 23:12:00,-9.0,-99.9,-100.00,SW,228,9.0,12.0,-999,-99.99,,,-99.99,,2013-01-22 05:12:00,
2013-01-21 23:23:00,-9.0,-99.9,-100.00,SW,228,9.0,12.0,-999,-99.99,,,-99.99,,2013-01-22 05:23:00,
2013-01-21 23:33:00,-9.0,-99.9,-100.00,SW,228,9.0,12.0,-999,-99.99,,,-99.99,,2013-01-22 05:33:00,
2013-01-21 23:40:00,-9.0,-99.9,-100.00,SW,220,10.0,12.0,-999,-99.99,,,-99.99,,2013-01-22 05:40:00,